PAY2089 KBIS-KLAS

Flight info

Callsign PAY2089
Flight time 2h 12m
Altitude 38000
Route DPR J107 DDY/N0480F400 J107 OCS FFU MLF STEWW CHOWW4
Aircraft GLF6/M-SFGHIRWXY/S

Departure

Time 2026-05-05 17:30
Airport Bismarck Municipal Airport (KBIS)

Arrival

Time 2026-05-05 19:43
Airport Harry Reid International Airport (KLAS)
Time Latitude Longitude Altitude Speed Heading
2026-05-05 17:24 46.77246 -100.75468 1652 ft 0 kts 138°
2026-05-05 17:26 46.77242 -100.75454 1652 ft 4 kts 107°
2026-05-05 17:26 46.77256 -100.75406 1652 ft 7 kts 50°
2026-05-05 17:26 46.77307 -100.75324 1651 ft 14 kts 47°
2026-05-05 17:26 46.77359 -100.75240 1651 ft 10 kts 56°
2026-05-05 17:27 46.77321 -100.75127 1651 ft 18 kts 136°
2026-05-05 17:27 46.77201 -100.74967 1650 ft 27 kts 137°
2026-05-05 17:27 46.77062 -100.74782 1648 ft 26 kts 137°
2026-05-05 17:27 46.76933 -100.74609 1647 ft 24 kts 137°
2026-05-05 17:28 46.76811 -100.74448 1647 ft 23 kts 137°
2026-05-05 17:28 46.76710 -100.74313 1646 ft 17 kts 137°
2026-05-05 17:28 46.76621 -100.74198 1646 ft 16 kts 137°
2026-05-05 17:28 46.76551 -100.74103 1647 ft 10 kts 136°
2026-05-05 17:29 46.76515 -100.74030 1647 ft 8 kts 98°
2026-05-05 17:29 46.76537 -100.73964 1647 ft 6 kts 49°
2026-05-05 17:29 46.76560 -100.73927 1647 ft 4 kts 47°
2026-05-05 17:29 46.76597 -100.73871 1647 ft 11 kts 41°
2026-05-05 17:30 46.76668 -100.73887 1647 ft 12 kts 318°
2026-05-05 17:30 46.76836 -100.74114 1647 ft 66 kts 318°
2026-05-05 17:30 46.77398 -100.74856 1652 ft 147 kts 317°
2026-05-05 17:30 46.78215 -100.75966 2408 ft 167 kts 317°
2026-05-05 17:31 46.78538 -100.77461 3715 ft 172 kts 268°
2026-05-05 17:31 46.77973 -100.79140 4250 ft 216 kts 229°
2026-05-05 17:31 46.76462 -100.80199 4403 ft 276 kts 189°
2026-05-05 17:31 46.74497 -100.79987 5512 ft 286 kts 174°
2026-05-05 17:32 46.72548 -100.79600 6849 ft 286 kts 174°
2026-05-05 17:32 46.70579 -100.79328 7952 ft 292 kts 182°
2026-05-05 17:32 46.68582 -100.79623 9120 ft 294 kts 194°
2026-05-05 17:32 46.66600 -100.80320 10249 ft 298 kts 199°
2026-05-05 17:33 46.64526 -100.81279 10383 ft 338 kts 202°
2026-05-05 17:33 46.62211 -100.82520 10990 ft 360 kts 204°
2026-05-05 17:33 46.59924 -100.83812 12280 ft 360 kts 205°
2026-05-05 17:33 46.57592 -100.85167 13304 ft 367 kts 205°
2026-05-05 17:34 46.55187 -100.86581 14405 ft 373 kts 205°
2026-05-05 17:34 46.52799 -100.87991 15520 ft 377 kts 205°
2026-05-05 17:34 46.50357 -100.89435 16617 ft 382 kts 205°
2026-05-05 17:34 46.47893 -100.90892 17710 ft 387 kts 205°
2026-05-05 17:35 46.45416 -100.92356 18748 ft 393 kts 205°
2026-05-05 17:35 46.42878 -100.93855 19830 ft 398 kts 206°
2026-05-05 17:35 46.40297 -100.95377 20839 ft 404 kts 206°
2026-05-05 17:35 46.37697 -100.96909 21870 ft 409 kts 206°
2026-05-05 17:36 46.35046 -100.98470 22843 ft 414 kts 206°
2026-05-05 17:36 46.32383 -101.00036 23788 ft 420 kts 206°
2026-05-05 17:36 46.29684 -101.01620 24675 ft 426 kts 206°
2026-05-05 17:36 46.26930 -101.03236 25577 ft 430 kts 206°
2026-05-05 17:37 46.24175 -101.04851 26458 ft 433 kts 206°
2026-05-05 17:37 46.21353 -101.06504 27258 ft 438 kts 206°
2026-05-05 17:37 46.18537 -101.08151 28055 ft 442 kts 206°
2026-05-05 17:37 46.15673 -101.09823 28844 ft 445 kts 207°
2026-05-05 17:38 46.12824 -101.11486 29569 ft 449 kts 207°
2026-05-05 17:38 46.09898 -101.13193 30215 ft 453 kts 207°
2026-05-05 17:38 46.06960 -101.14903 30769 ft 458 kts 207°
2026-05-05 17:38 46.04033 -101.16605 31323 ft 458 kts 207°
2026-05-05 17:39 46.01096 -101.18309 31995 ft 455 kts 207°
2026-05-05 17:39 45.98148 -101.20021 32571 ft 456 kts 207°
2026-05-05 17:39 45.95249 -101.21700 33183 ft 454 kts 207°
2026-05-05 17:39 45.92304 -101.23405 33827 ft 452 kts 207°
2026-05-05 17:40 45.89401 -101.25085 34400 ft 453 kts 208°
2026-05-05 17:40 45.86462 -101.26783 34980 ft 453 kts 208°
2026-05-05 17:40 45.83545 -101.28465 35553 ft 452 kts 208°
2026-05-05 17:40 45.80627 -101.30147 36159 ft 450 kts 208°
2026-05-05 17:41 45.77733 -101.31814 36611 ft 452 kts 208°
2026-05-05 17:41 45.74821 -101.33489 37018 ft 454 kts 208°
2026-05-05 17:41 45.71895 -101.35169 37500 ft 454 kts 208°
2026-05-05 17:41 45.68943 -101.36862 37931 ft 457 kts 208°
2026-05-05 17:42 45.65967 -101.38570 37983 ft 469 kts 208°
2026-05-05 17:42 45.62912 -101.40321 37997 ft 481 kts 207°
2026-05-05 17:42 45.59800 -101.42099 37995 ft 489 kts 207°
2026-05-05 17:43 45.53443 -101.45722 37991 ft 487 kts 207°
2026-05-05 17:43 45.47235 -101.49255 37986 ft 480 kts 208°
2026-05-05 17:44 45.41022 -101.52785 37988 ft 480 kts 208°
2026-05-05 17:44 45.34842 -101.56287 37989 ft 482 kts 208°
2026-05-05 17:45 45.28611 -101.59808 37990 ft 482 kts 208°
2026-05-05 17:45 45.22368 -101.63329 37991 ft 481 kts 208°
2026-05-05 17:46 45.16152 -101.66826 37997 ft 480 kts 207°
2026-05-05 17:46 45.09993 -101.70409 37981 ft 474 kts 214°
2026-05-05 17:46 45.07462 -101.73289 38009 ft 459 kts 233°
2026-05-05 17:47 45.05695 -101.76945 38021 ft 452 kts 243°
2026-05-05 17:47 45.02527 -101.84652 37996 ft 453 kts 244°
2026-05-05 17:48 44.99416 -101.92336 37998 ft 452 kts 244°
2026-05-05 17:48 44.96314 -101.99988 37992 ft 452 kts 244°
2026-05-05 17:49 44.93193 -102.07667 38001 ft 451 kts 244°
2026-05-05 17:49 44.90064 -102.15349 37998 ft 451 kts 244°
2026-05-05 17:50 44.86918 -102.23047 38004 ft 451 kts 244°
2026-05-05 17:50 44.83806 -102.30643 37999 ft 451 kts 244°
2026-05-05 17:51 44.80673 -102.38272 38000 ft 450 kts 244°
2026-05-05 17:51 44.77548 -102.45859 37998 ft 450 kts 244°
2026-05-05 17:52 44.74395 -102.53488 37998 ft 450 kts 244°
2026-05-05 17:52 44.71249 -102.61086 37993 ft 449 kts 244°
2026-05-05 17:53 44.68110 -102.68649 38007 ft 451 kts 243°
2026-05-05 17:53 44.64945 -102.76248 38008 ft 451 kts 243°
2026-05-05 17:54 44.61767 -102.83860 38006 ft 451 kts 243°
2026-05-05 17:54 44.58609 -102.91403 38009 ft 451 kts 243°
2026-05-05 17:55 44.55429 -102.98982 38010 ft 451 kts 243°
2026-05-05 17:55 44.52246 -103.06545 38007 ft 450 kts 243°
2026-05-05 17:56 44.49082 -103.14044 38009 ft 450 kts 243°
2026-05-05 17:56 44.45877 -103.21619 38007 ft 451 kts 243°
2026-05-05 17:57 44.42682 -103.29150 38007 ft 450 kts 243°
2026-05-05 17:57 44.39485 -103.36668 37999 ft 449 kts 243°
2026-05-05 17:58 44.36307 -103.44119 37996 ft 450 kts 243°
2026-05-05 17:58 44.33105 -103.51611 37981 ft 450 kts 243°
2026-05-05 17:59 44.29901 -103.59085 37966 ft 449 kts 243°
2026-05-05 17:59 44.26869 -103.66138 37956 ft 449 kts 243°
2026-05-05 18:00 44.23657 -103.73593 37938 ft 450 kts 243°
2026-05-05 18:00 44.20418 -103.81095 37920 ft 449 kts 243°
2026-05-05 18:01 44.17214 -103.88490 37921 ft 448 kts 243°
2026-05-05 18:01 44.14015 -103.95857 37921 ft 447 kts 243°
2026-05-05 18:02 44.10784 -104.03278 37920 ft 448 kts 243°
2026-05-05 18:02 44.07581 -104.10618 37937 ft 448 kts 243°
2026-05-05 18:03 44.04349 -104.18005 37974 ft 447 kts 243°
2026-05-05 18:03 44.01113 -104.25384 37999 ft 448 kts 243°
2026-05-05 18:04 43.97864 -104.32768 38010 ft 448 kts 243°
2026-05-05 18:04 43.94616 -104.40134 38011 ft 447 kts 243°
2026-05-05 18:05 43.91381 -104.47454 38016 ft 448 kts 243°
2026-05-05 18:05 43.88119 -104.54813 38023 ft 447 kts 243°
2026-05-05 18:06 43.84876 -104.62112 38027 ft 447 kts 243°
2026-05-05 18:06 43.81621 -104.69421 38011 ft 446 kts 243°
2026-05-05 18:07 43.78360 -104.76723 38018 ft 445 kts 242°
2026-05-05 18:07 43.75108 -104.83985 38002 ft 445 kts 243°
2026-05-05 18:08 43.71843 -104.91264 38012 ft 447 kts 243°
2026-05-05 18:08 43.68573 -104.98531 38016 ft 444 kts 243°
2026-05-05 18:09 43.65317 -105.05748 38009 ft 444 kts 243°
2026-05-05 18:09 43.62048 -105.12978 38006 ft 444 kts 243°
2026-05-05 18:10 43.58791 -105.20166 37998 ft 443 kts 242°
2026-05-05 18:10 43.55521 -105.27361 38018 ft 443 kts 243°
2026-05-05 18:11 43.52251 -105.34540 38004 ft 443 kts 242°
2026-05-05 18:11 43.48980 -105.41702 38008 ft 442 kts 243°
2026-05-05 18:12 43.45702 -105.48864 38003 ft 442 kts 243°
2026-05-05 18:12 43.42436 -105.55980 38003 ft 443 kts 243°
2026-05-05 18:13 43.39164 -105.63092 37992 ft 441 kts 242°
2026-05-05 18:13 43.35849 -105.70283 38011 ft 442 kts 242°
2026-05-05 18:14 43.32567 -105.77383 38006 ft 442 kts 242°
2026-05-05 18:14 43.29269 -105.84501 37996 ft 441 kts 242°
2026-05-05 18:15 43.25988 -105.91566 37991 ft 442 kts 242°
2026-05-05 18:15 43.22678 -105.98676 37979 ft 441 kts 242°
2026-05-05 18:16 43.19394 -106.05710 37980 ft 441 kts 242°
2026-05-05 18:16 43.16085 -106.12783 37985 ft 442 kts 242°
2026-05-05 18:17 43.12753 -106.19888 38004 ft 441 kts 242°
2026-05-05 18:17 43.09456 -106.26895 38009 ft 441 kts 241°
2026-05-05 18:18 43.05906 -106.33754 38011 ft 443 kts 239°
2026-05-05 18:18 43.02317 -106.40594 38013 ft 444 kts 239°
2026-05-05 18:19 42.98734 -106.47405 38014 ft 442 kts 239°
2026-05-05 18:19 42.95143 -106.54212 38018 ft 443 kts 239°
2026-05-05 18:20 42.91554 -106.61002 38010 ft 444 kts 239°
2026-05-05 18:20 42.87923 -106.67854 38015 ft 443 kts 238°
2026-05-05 18:21 42.84295 -106.74690 38011 ft 444 kts 239°
2026-05-05 18:21 42.80684 -106.81472 37999 ft 443 kts 238°
2026-05-05 18:22 42.77058 -106.88270 37984 ft 443 kts 238°
2026-05-05 18:22 42.73437 -106.95042 37971 ft 443 kts 238°
2026-05-05 18:23 42.69841 -107.01752 37972 ft 443 kts 238°
2026-05-05 18:23 42.66201 -107.08529 37964 ft 443 kts 238°
2026-05-05 18:24 42.62583 -107.15249 37962 ft 443 kts 238°
2026-05-05 18:24 42.58951 -107.21980 37951 ft 441 kts 238°
2026-05-05 18:25 42.55324 -107.28690 37954 ft 443 kts 238°
2026-05-05 18:25 42.51667 -107.35435 37952 ft 444 kts 238°
2026-05-05 18:26 42.48034 -107.42125 37956 ft 443 kts 238°
2026-05-05 18:26 42.44389 -107.48819 37945 ft 444 kts 238°
2026-05-05 18:27 42.40730 -107.55526 37946 ft 444 kts 238°
2026-05-05 18:27 42.37060 -107.62237 37946 ft 444 kts 238°
2026-05-05 18:28 42.31522 -107.72337 37945 ft 445 kts 237°
2026-05-05 18:28 42.27850 -107.79015 37938 ft 446 kts 237°
2026-05-05 18:29 42.24153 -107.85722 37942 ft 446 kts 237°
2026-05-05 18:29 42.20457 -107.92413 37942 ft 447 kts 237°
2026-05-05 18:30 42.16746 -107.99117 37949 ft 446 kts 237°
2026-05-05 18:30 42.13049 -108.05781 37949 ft 447 kts 237°
2026-05-05 18:31 42.09318 -108.12490 37952 ft 449 kts 237°
2026-05-05 18:31 42.05585 -108.19190 37957 ft 449 kts 237°
2026-05-05 18:32 42.01824 -108.25922 37958 ft 450 kts 237°
2026-05-05 18:32 41.98066 -108.32637 37868 ft 451 kts 237°
2026-05-05 18:33 41.94307 -108.39336 37958 ft 450 kts 236°
2026-05-05 18:33 41.90538 -108.46041 37960 ft 454 kts 237°
2026-05-05 18:34 41.86730 -108.52797 37963 ft 453 kts 237°
2026-05-05 18:34 41.82914 -108.59553 37961 ft 453 kts 237°
2026-05-05 18:35 41.79101 -108.66290 37970 ft 455 kts 236°
2026-05-05 18:35 41.75279 -108.73028 37976 ft 455 kts 236°
2026-05-05 18:36 41.71465 -108.79736 37976 ft 455 kts 236°
2026-05-05 18:36 41.67637 -108.86455 37980 ft 457 kts 236°
2026-05-05 18:37 41.63785 -108.93199 37971 ft 457 kts 236°
2026-05-05 18:37 41.59921 -108.99950 37936 ft 459 kts 236°
2026-05-05 18:38 41.56585 -109.07169 37934 ft 456 kts 243°
2026-05-05 18:38 41.53445 -109.14507 37943 ft 457 kts 243°
2026-05-05 18:39 41.50286 -109.21847 37976 ft 458 kts 243°
2026-05-05 18:39 41.47118 -109.29184 37980 ft 459 kts 243°
2026-05-05 18:40 41.43940 -109.36526 37986 ft 458 kts 243°
2026-05-05 18:40 41.40759 -109.43862 37981 ft 460 kts 243°
2026-05-05 18:41 41.37544 -109.51251 37976 ft 461 kts 243°
2026-05-05 18:41 41.34337 -109.58607 37976 ft 462 kts 243°
2026-05-05 18:42 41.31105 -109.66004 37976 ft 464 kts 242°
2026-05-05 18:42 41.27860 -109.73411 37989 ft 463 kts 242°
2026-05-05 18:43 41.24620 -109.80790 37985 ft 465 kts 242°
2026-05-05 18:43 41.21362 -109.88190 37990 ft 467 kts 242°
2026-05-05 18:44 41.18059 -109.95671 37982 ft 467 kts 242°
2026-05-05 18:44 41.14790 -110.03059 37990 ft 467 kts 242°
2026-05-05 18:45 41.11493 -110.10494 37996 ft 469 kts 242°
2026-05-05 18:45 41.08174 -110.17957 37992 ft 470 kts 242°
2026-05-05 18:46 41.04841 -110.25437 37977 ft 471 kts 242°
2026-05-05 18:46 41.01506 -110.32903 37961 ft 472 kts 242°
2026-05-05 18:47 40.98166 -110.40360 37959 ft 473 kts 242°
2026-05-05 18:47 40.94800 -110.47854 37951 ft 473 kts 242°
2026-05-05 18:48 40.91421 -110.55363 37936 ft 475 kts 242°
2026-05-05 18:48 40.88032 -110.62871 37931 ft 477 kts 242°
2026-05-05 18:49 40.84631 -110.70393 37942 ft 476 kts 241°
2026-05-05 18:49 40.81235 -110.77879 37946 ft 477 kts 241°
2026-05-05 18:50 40.77831 -110.85370 37945 ft 477 kts 241°
2026-05-05 18:50 40.74408 -110.92881 37939 ft 478 kts 241°
2026-05-05 18:51 40.70974 -111.00401 37920 ft 479 kts 241°
2026-05-05 18:51 40.67536 -111.07906 37949 ft 480 kts 241°
2026-05-05 18:52 40.64086 -111.15421 37957 ft 480 kts 241°
2026-05-05 18:52 40.60640 -111.22910 37965 ft 481 kts 241°
2026-05-05 18:53 40.57155 -111.30466 37958 ft 481 kts 241°
2026-05-05 18:53 40.53686 -111.37968 37944 ft 482 kts 241°
2026-05-05 18:54 40.50190 -111.45510 37935 ft 482 kts 241°
2026-05-05 18:54 40.46715 -111.52988 37925 ft 483 kts 241°
2026-05-05 18:55 40.43222 -111.60487 37930 ft 484 kts 241°
2026-05-05 18:55 40.39696 -111.68038 37949 ft 484 kts 240°
2026-05-05 18:56 40.36169 -111.75575 37962 ft 485 kts 240°
2026-05-05 18:56 40.32631 -111.83114 37952 ft 485 kts 240°
2026-05-05 18:57 40.29076 -111.90637 37935 ft 486 kts 237°
2026-05-05 18:57 40.26765 -111.93834 37960 ft 491 kts 218°
2026-05-05 18:57 40.23763 -111.96096 37969 ft 494 kts 206°
2026-05-05 18:58 40.17486 -111.99805 37960 ft 495 kts 205°
2026-05-05 18:58 40.11228 -112.03410 37964 ft 493 kts 205°
2026-05-05 18:59 40.04915 -112.07035 37965 ft 493 kts 205°
2026-05-05 18:59 39.98630 -112.10634 37954 ft 493 kts 205°
2026-05-05 19:00 39.92355 -112.14220 37957 ft 491 kts 205°
2026-05-05 19:00 39.86045 -112.17819 37944 ft 492 kts 205°
2026-05-05 19:01 39.79796 -112.21377 37953 ft 492 kts 205°
2026-05-05 19:01 39.73509 -112.24948 37950 ft 491 kts 205°
2026-05-05 19:02 39.67268 -112.28486 37939 ft 491 kts 205°
2026-05-05 19:02 39.61021 -112.32021 37948 ft 488 kts 205°
2026-05-05 19:03 39.54776 -112.35548 37948 ft 488 kts 205°
2026-05-05 19:03 39.48556 -112.39053 37927 ft 489 kts 205°
2026-05-05 19:04 39.42344 -112.42548 37941 ft 486 kts 205°
2026-05-05 19:04 39.36095 -112.46056 37932 ft 486 kts 205°
2026-05-05 19:05 39.29931 -112.49511 37937 ft 486 kts 205°
2026-05-05 19:05 39.23720 -112.52985 37922 ft 485 kts 204°
2026-05-05 19:06 39.17520 -112.56445 37936 ft 485 kts 205°
2026-05-05 19:06 39.11337 -112.59890 37929 ft 484 kts 204°
2026-05-05 19:07 39.05162 -112.63322 37929 ft 484 kts 204°
2026-05-05 19:07 38.98962 -112.66763 37927 ft 485 kts 204°
2026-05-05 19:08 38.92758 -112.70200 37940 ft 484 kts 204°
2026-05-05 19:08 38.86528 -112.73644 37995 ft 484 kts 204°
2026-05-05 19:09 38.80335 -112.77062 37946 ft 484 kts 204°
2026-05-05 19:09 38.74173 -112.80454 37949 ft 482 kts 204°
2026-05-05 19:10 38.67999 -112.83849 37942 ft 482 kts 204°
2026-05-05 19:10 38.61847 -112.87224 37947 ft 482 kts 204°
2026-05-05 19:11 38.55682 -112.90600 37950 ft 482 kts 204°
2026-05-05 19:11 38.49542 -112.93957 37944 ft 480 kts 204°
2026-05-05 19:12 38.43391 -112.97311 37949 ft 479 kts 204°
2026-05-05 19:12 38.37275 -113.00643 37945 ft 480 kts 204°
2026-05-05 19:13 38.31014 -113.03712 37941 ft 479 kts 201°
2026-05-05 19:13 38.24800 -113.06660 37963 ft 480 kts 201°
2026-05-05 19:14 38.18571 -113.09613 37967 ft 478 kts 201°
2026-05-05 19:14 38.12322 -113.12571 37956 ft 476 kts 201°
2026-05-05 19:15 38.06139 -113.15492 37980 ft 476 kts 201°
2026-05-05 19:15 37.99909 -113.18431 37969 ft 477 kts 201°
2026-05-05 19:16 37.93701 -113.21352 37981 ft 476 kts 201°
2026-05-05 19:16 37.87483 -113.24274 37976 ft 476 kts 201°
2026-05-05 19:17 37.81291 -113.27179 37968 ft 475 kts 201°
2026-05-05 19:17 37.75115 -113.30071 37976 ft 474 kts 201°
2026-05-05 19:18 37.68914 -113.32969 37976 ft 474 kts 201°
2026-05-05 19:18 37.65875 -113.34387 37950 ft 459 kts 201°
2026-05-05 19:18 37.62915 -113.35767 37942 ft 442 kts 201°
2026-05-05 19:19 37.57220 -113.38422 37735 ft 440 kts 201°
2026-05-05 19:19 37.54345 -113.39760 37335 ft 450 kts 201°
2026-05-05 19:19 37.51386 -113.41135 36852 ft 452 kts 201°
2026-05-05 19:20 37.48428 -113.42510 36352 ft 450 kts 200°
2026-05-05 19:20 37.45514 -113.43862 35853 ft 447 kts 201°
2026-05-05 19:20 37.42611 -113.45203 35350 ft 442 kts 201°
2026-05-05 19:20 37.39750 -113.46529 34877 ft 442 kts 201°
2026-05-05 19:21 37.36839 -113.47878 34381 ft 444 kts 201°
2026-05-05 19:21 37.33947 -113.49216 33893 ft 448 kts 201°
2026-05-05 19:21 37.30999 -113.50578 33409 ft 451 kts 201°
2026-05-05 19:21 37.28067 -113.51933 32957 ft 454 kts 201°
2026-05-05 19:22 37.25077 -113.53313 32466 ft 455 kts 201°
2026-05-05 19:22 37.22214 -113.54883 31989 ft 454 kts 205°
2026-05-05 19:22 37.19341 -113.56596 31506 ft 456 kts 205°
2026-05-05 19:22 37.16465 -113.58289 31001 ft 458 kts 205°
2026-05-05 19:23 37.13588 -113.59976 30441 ft 460 kts 204°
2026-05-05 19:23 37.10688 -113.61671 29820 ft 456 kts 204°
2026-05-05 19:23 37.07834 -113.63339 29294 ft 451 kts 204°
2026-05-05 19:23 37.05018 -113.64982 28795 ft 448 kts 205°
2026-05-05 19:24 37.02145 -113.66657 28296 ft 447 kts 204°
2026-05-05 19:24 36.99363 -113.68278 27806 ft 445 kts 204°
2026-05-05 19:24 36.96542 -113.69921 27293 ft 442 kts 204°
2026-05-05 19:24 36.93775 -113.71535 26811 ft 438 kts 204°
2026-05-05 19:25 36.91016 -113.73147 26322 ft 436 kts 204°
2026-05-05 19:25 36.88250 -113.74762 25837 ft 432 kts 204°
2026-05-05 19:25 36.85531 -113.76347 25365 ft 431 kts 204°
2026-05-05 19:25 36.82818 -113.77927 24866 ft 429 kts 204°
2026-05-05 19:26 36.80118 -113.79500 24393 ft 426 kts 204°
2026-05-05 19:26 36.77468 -113.81042 23927 ft 423 kts 204°
2026-05-05 19:26 36.74799 -113.82594 23453 ft 420 kts 204°
2026-05-05 19:26 36.72142 -113.84136 22986 ft 418 kts 204°
2026-05-05 19:27 36.69504 -113.85670 22519 ft 415 kts 204°
2026-05-05 19:27 36.66898 -113.87180 22067 ft 412 kts 204°
2026-05-05 19:27 36.64294 -113.88690 21610 ft 410 kts 204°
2026-05-05 19:27 36.61718 -113.90182 21156 ft 407 kts 204°
2026-05-05 19:28 36.59248 -113.91836 20695 ft 406 kts 216°
2026-05-05 19:28 36.57303 -113.94376 20265 ft 405 kts 231°
2026-05-05 19:28 36.55589 -113.97130 19811 ft 402 kts 232°
2026-05-05 19:28 36.53894 -113.99864 19366 ft 400 kts 231°
2026-05-05 19:29 36.52205 -114.02584 18934 ft 396 kts 231°
2026-05-05 19:29 36.50527 -114.05286 18493 ft 395 kts 231°
2026-05-05 19:29 36.48831 -114.08015 18048 ft 394 kts 231°
2026-05-05 19:29 36.47168 -114.10690 17619 ft 390 kts 231°
2026-05-05 19:30 36.45518 -114.13342 17188 ft 387 kts 231°
2026-05-05 19:30 36.43882 -114.15970 16761 ft 383 kts 231°
2026-05-05 19:30 36.42266 -114.18562 16377 ft 372 kts 231°
2026-05-05 19:30 36.40707 -114.21062 15990 ft 363 kts 231°
2026-05-05 19:31 36.39175 -114.23508 15602 ft 355 kts 231°
2026-05-05 19:31 36.37661 -114.25886 15221 ft 348 kts 231°
2026-05-05 19:31 36.36175 -114.28218 14838 ft 342 kts 231°
2026-05-05 19:31 36.34719 -114.30502 14466 ft 335 kts 231°
2026-05-05 19:32 36.33306 -114.32719 14053 ft 317 kts 230°
2026-05-05 19:32 36.31953 -114.34839 13775 ft 312 kts 231°
2026-05-05 19:32 36.30615 -114.36934 13421 ft 309 kts 230°
2026-05-05 19:32 36.29283 -114.39018 13080 ft 306 kts 231°
2026-05-05 19:33 36.27965 -114.41079 12743 ft 304 kts 231°
2026-05-05 19:33 36.26647 -114.43140 12408 ft 303 kts 231°
2026-05-05 19:33 36.25344 -114.45171 12070 ft 301 kts 230°
2026-05-05 19:33 36.24044 -114.47169 11734 ft 298 kts 230°
2026-05-05 19:34 36.22739 -114.49171 11409 ft 297 kts 230°
2026-05-05 19:34 36.21455 -114.51139 11080 ft 296 kts 230°
2026-05-05 19:34 36.20172 -114.53105 10758 ft 294 kts 230°
2026-05-05 19:35 36.17574 -114.57083 9647 ft 305 kts 231°
2026-05-05 19:35 36.16236 -114.59135 9200 ft 304 kts 231°
2026-05-05 19:35 36.14931 -114.61162 9022 ft 292 kts 232°
2026-05-05 19:35 36.13711 -114.63122 9004 ft 284 kts 232°
2026-05-05 19:36 36.12502 -114.65060 9000 ft 284 kts 231°
2026-05-05 19:36 36.11318 -114.66956 8866 ft 274 kts 231°
2026-05-05 19:36 36.10154 -114.68819 8607 ft 270 kts 231°
2026-05-05 19:36 36.09023 -114.70628 8324 ft 267 kts 231°
2026-05-05 19:37 36.07947 -114.72489 7993 ft 261 kts 244°
2026-05-05 19:37 36.07633 -114.74622 7728 ft 254 kts 266°
2026-05-05 19:37 36.07615 -114.76866 7028 ft 265 kts 269°
2026-05-05 19:37 36.07616 -114.79043 6688 ft 240 kts 269°
2026-05-05 19:38 36.07619 -114.81024 6403 ft 229 kts 269°
2026-05-05 19:38 36.07622 -114.82993 6161 ft 230 kts 269°
2026-05-05 19:38 36.07625 -114.84971 5912 ft 227 kts 268°
2026-05-05 19:38 36.07629 -114.86897 5654 ft 219 kts 268°
2026-05-05 19:39 36.07631 -114.88763 5419 ft 217 kts 268°
2026-05-05 19:39 36.07634 -114.90610 5185 ft 216 kts 268°
2026-05-05 19:39 36.07636 -114.92432 4946 ft 204 kts 268°
2026-05-05 19:39 36.07639 -114.94103 4715 ft 190 kts 268°
2026-05-05 19:40 36.07641 -114.95709 4574 ft 174 kts 268°
2026-05-05 19:40 36.07642 -114.97132 4384 ft 166 kts 267°
2026-05-05 19:40 36.07642 -114.98573 4171 ft 165 kts 267°
2026-05-05 19:40 36.07642 -114.99986 3976 ft 166 kts 267°
2026-05-05 19:41 36.07643 -115.01400 3801 ft 163 kts 266°
2026-05-05 19:41 36.07643 -115.02803 3783 ft 163 kts 267°
2026-05-05 19:41 36.07616 -115.04214 3778 ft 164 kts 266°
2026-05-05 19:41 36.07632 -115.05645 3310 ft 170 kts 267°
2026-05-05 19:42 36.07639 -115.07069 2915 ft 159 kts 267°
2026-05-05 19:42 36.07639 -115.08449 2725 ft 161 kts 267°
2026-05-05 19:42 36.07640 -115.09829 2528 ft 163 kts 267°
2026-05-05 19:42 36.07639 -115.11240 2314 ft 164 kts 268°
2026-05-05 19:43 36.07640 -115.12633 2112 ft 163 kts 267°
2026-05-05 19:43 36.07643 -115.14065 2093 ft 169 kts 266°
2026-05-05 19:43 36.07628 -115.14999 2122 ft 37 kts 273°
2026-05-05 19:43 36.07647 -115.15083 2125 ft 12 kts 317°
2026-05-05 19:44 36.07690 -115.15105 2125 ft 11 kts 354°
2026-05-05 19:44 36.07743 -115.15108 2125 ft 8 kts 360°
2026-05-05 19:44 36.07786 -115.15110 2124 ft 12 kts 341°
2026-05-05 19:44 36.07811 -115.15197 2127 ft 5 kts 269°
2026-05-05 19:45 36.07807 -115.15258 2129 ft 13 kts 265°
2026-05-05 19:45 36.07805 -115.15334 2131 ft 18 kts 269°
2026-05-05 19:45 36.07802 -115.15552 2139 ft 24 kts 269°
2026-05-05 19:45 36.07803 -115.15751 2147 ft 22 kts 270°